Theta_e
348 349 348 348 347 347 347 347 346 343 339 336 336 335 336 337 338 339 340 340 340 339 338 338 338 338 339 339 338 337 335 333 333 331 331 331 330 328 331 330 331 331 332
344 341 338 337 338 338 337 335 335 334 332 331 331 331 332 332 334 336 337 338 338 338 337 338 337 337 336 334 334 333 331 332 333 333 333 333 333 333 333 335 335 335 335
332 333 335 335 334 334 333 333 333 333 332 331 330 330 331 331 332 333 335 336 335 335 335 334 334 335 336 336 335 334 334 334 334 334 335 334 334 334 333 334 334 333 332
334 335 335 336 336 334 334 334 334 333 331 330 331 331 332 333 334 334 334 333 332 331 331 330 331 330 330 331 331 330 331 333 333 334 332 330 329 331 330 330 329 328 329
335 335 334 334 335 333 333 333 333 332 332 332 332 332 333 332 331 331 330 329 327 327 325 325 323 322 321 320 319 318 317 316 317 318 319 318 316 318 319 321 321 321 321
337 336 336 336 337 337 336 335 334 333 332 332 332 330 328 325 320 315 313 311 310 309 309 309 309 308 308 307 307 307 307 307 307 308 311 311 307 307 311 312 314 314 315
338 338 339 338 335 334 334 334 332 331 330 327 324 321 316 312 309 310 312 312 311 311 310 309 309 308 308 309 309 309 309 309 309 309 309 309 309 308 308 308 310 312 313
340 339 337 336 336 334 334 332 331 327 322 317 313 310 310 311 312 313 312 312 311 309 309 309 310 310 310 310 310 310 309 309 308 307 308 308 309 309 309 309 310 311 311
340 338 337 336 335 334 332 329 324 315 310 308 310 312 313 313 312 312 311 310 310 310 310 310 310 310 310 309 308 307 307 308 309 307 307 307 308 309 309 310 311 312 313
341 340 338 335 334 331 325 316 310 310 311 313 313 313 314 313 311 311 311 311 311 311 311 311 310 310 309 307 306 306 308 309 309 308 309 309 309 310 309 310 310 312 312
342 340 337 335 329 320 313 311 312 313 314 313 313 312 312 312 312 312 312 312 311 311 312 311 310 308 306 306 306 306 307 307 307 309 309 309 310 310 311 311 310 310 312
341 338 336 327 318 312 312 313 314 314 314 314 314 314 314 314 313 312 312 311 311 310 310 309 307 307 307 307 306 306 306 305 308 309 308 308 309 309 310 311 310 310 310
339 337 330 319 312 312 314 314 314 314 314 314 314 312 312 312 312 311 311 310 309 308 307 307 307 307 307 307 307 306 306 307 308 309 308 308 308 308 308 308 309 309 309
337 333 321 312 314 315 314 314 313 312 311 311 311 311 311 311 310 309 307 307 307 307 308 308 307 307 308 307 308 307 308 308 308 306 306 306 306 306 308 308 309 309 309
333 319 313 314 314 314 313 312 311 311 311 310 310 310 310 309 307 305 305 307 307 308 307 307 308 309 308 308 308 308 308 307 306 306 307 306 306 306 306 307 308 308 308
315 312 314 314 313 313 311 311 311 310 309 309 309 307 305 307 307 307 307 307 307 307 307 308 309 308 308 308 308 308 308 307 307 305 306 306 306 306 306 306 306 306 307
310 311 311 313 313 312 311 312 311 309 309 310 307 307 308 309 308 308 308 307 307 307 307 308 309 309 309 308 309 309 309 308 308 307 305 306 306 306 306 306 305 305 306
310 312 313 314 313 312 313 312 310 309 312 311 308 310 309 309 309 309 309 309 309 309 309 309 309 309 309 309 309 309 308 307 308 308 307 305 306 306 306 306 305 305 305
313 314 315 314 314 313 313 311 309 309 311 311 311 311 310 310 310 309 310 309 309 309 309 309 310 309 309 309 308 308 308 307 307 307 307 307 307 306 306 305 304 303 304
315 312 312 312 312 311 310 309 311 311 312 311 311 311 310 310 310 310 310 310 310 309 309 309 309 309 308 308 308 307 307 307 308 308 307 307 307 307 306 304 306 304 305
311 312 312 311 310 309 311 311 311 311 311 311 311 310 309 309 309 310 310 310 310 309 309 309 309 308 307 307 307 307 306 306 306 307 307 306 306 306 305 304 306 305 305
312 312 312 310 309 310 310 309 310 311 311 310 310 309 307 309 310 310 310 310 309 309 309 308 308 308 307 307 307 307 305 305 305 305 305 305 305 306 305 304 306 305 305
312 314 311 309 310 310 310 310 310 310 310 309 310 310 310 310 309 309 309 309 309 308 307 307 308 307 307 306 304 303 302 301 301 302 303 304 303 304 303 304 305 305 304
316 314 311 310 310 309 310 309 309 309 310 310 311 312 311 310 310 309 309 309 308 307 306 307 307 308 308 306 305 301 299 297 297 299 301 303 303 302 301 301 303 303 302
316 314 310 310 310 308 309 310 311 311 312 313 313 313 313 312 310 309 308 306 305 307 307 307 307 309 309 308 306 305 300 297 294 296 299 300 302 302 301 301 303 303 303
314 309 309 308 308 310 311 312 313 313 312 312 312 313 313 313 311 308 305 304 306 307 307 307 309 311 311 308 307 306 302 301 299 298 300 300 301 301 301 302 303 303 303
Wind_Speed
14 11 9 10 11 9 5 3 3 2 2 4 4 4 4 4 4 4 5 6 5 6 7 9 7 6 6 7 6 6 6 7 9 7 7 8 8 9 11 15 16 18 15
16 15 15 14 12 11 9 7 6 7 6 6 5 5 4 5 5 5 5 5 5 4 5 6 7 10 12 10 10 10 13 15 12 12 14 14 14 16 18 20 20 16 17
18 16 16 15 13 12 11 9 8 6 5 4 3 2 2 2 3 4 5 5 5 5 7 8 7 8 8 7 11 13 14 14 15 16 13 15 20 21 24 25 25 25 25
20 19 18 15 13 11 9 7 5 2 1 1 2 3 4 4 4 3 4 6 7 7 8 8 8 9 10 9 10 8 7 10 13 16 17 16 15 14 19 20 23 21 20
20 19 17 14 12 10 8 5 4 4 4 5 5 6 7 7 7 8 8 8 9 8 9 7 8 9 9 11 11 12 13 14 16 17 17 19 15 14 16 17 19 19 22
18 16 14 14 12 9 6 3 3 4 5 6 7 8 8 8 8 7 7 5 4 4 5 7 8 8 9 10 11 13 16 18 20 19 16 18 24 23 19 19 19 20 22
13 12 11 10 6 5 3 1 1 4 5 6 7 7 7 6 6 5 5 6 7 8 9 8 6 9 12 14 16 17 18 20 22 24 27 26 28 28 29 30 24 23 24
12 10 8 5 3 4 2 1 3 5 6 7 6 4 2 3 3 4 5 7 9 11 10 10 11 13 16 19 22 24 24 24 24 24 26 29 27 28 27 28 28 28 29
10 9 5 1 3 3 3 5 6 5 3 1 0 1 2 3 3 5 7 7 8 9 12 14 16 18 23 24 26 26 26 25 22 25 24 24 26 26 22 22 22 21 23
10 6 3 1 3 2 4 6 4 3 2 1 1 1 2 3 4 6 7 9 11 13 15 16 19 21 23 24 27 29 27 24 23 24 22 20 19 20 23 21 18 21 21
9 6 2 2 3 3 4 3 3 2 1 1 2 3 3 5 7 9 11 12 13 14 12 14 17 22 23 26 27 29 26 28 28 22 20 19 18 18 17 17 17 18 20
10 5 3 2 2 3 2 3 3 2 3 4 6 8 10 11 12 12 13 14 15 16 17 17 22 25 27 30 27 24 26 27 21 20 20 19 18 18 17 16 17 17 18
10 6 3 3 1 1 2 3 4 6 7 7 8 9 12 13 13 13 15 17 17 16 17 21 24 27 30 30 24 26 26 18 19 19 19 19 18 19 20 18 16 19 20
10 7 4 3 3 3 2 4 4 5 6 8 8 9 10 12 15 16 15 13 15 15 18 21 26 27 26 24 21 21 19 18 18 19 19 21 22 21 17 18 19 17 18
8 4 4 5 6 4 5 5 4 5 6 7 9 13 13 9 11 13 11 9 13 16 23 25 23 24 22 21 21 21 21 21 22 21 23 24 23 22 20 17 19 20 20
6 5 7 6 6 5 5 4 5 6 9 11 14 12 10 13 14 12 13 15 17 20 25 24 25 25 23 22 23 24 23 23 22 22 22 20 21 22 22 21 21 22 24
7 8 8 7 4 4 2 2 4 7 12 13 12 10 13 16 14 13 16 19 23 26 29 25 26 26 25 24 25 26 27 26 24 22 23 20 20 20 21 23 24 26 27
10 9 6 4 2 1 4 5 4 10 9 9 11 15 15 16 19 22 25 29 33 28 33 26 28 28 28 28 29 30 31 29 26 25 25 25 24 23 23 24 28 30 30
9 7 4 1 2 2 4 1 7 11 9 10 13 16 16 20 22 22 24 28 29 27 25 25 27 29 29 29 31 33 33 31 30 29 27 25 23 22 25 26 29 31 26
8 8 8 5 2 2 2 5 7 10 10 12 15 17 18 20 23 23 22 22 24 24 25 26 28 30 32 34 36 36 34 32 30 28 27 25 25 26 27 26 27 20 18
11 7 7 5 5 4 5 7 9 10 12 14 16 18 20 25 27 23 24 25 25 26 27 28 31 35 34 34 36 42 44 44 42 38 35 35 29 30 27 24 22 16 18
8 5 7 4 4 4 8 9 9 10 12 14 16 19 24 25 23 25 25 25 26 26 27 30 32 33 43 50 51 51 48 45 44 41 39 38 34 32 28 23 19 19 19
8 5 5 4 3 7 6 7 7 9 11 13 15 18 20 21 22 23 24 25 26 27 28 30 40 48 51 48 46 45 45 43 41 36 34 33 30 31 26 22 16 18 17
4 1 2 3 3 5 6 8 8 10 12 14 15 17 19 22 24 24 24 25 26 28 34 38 44 51 47 41 38 39 43 41 36 29 26 22 24 24 18 15 16 17 17
3 1 2 1 2 5 8 8 9 12 16 18 20 22 23 24 26 26 26 28 29 34 37 42 51 46 41 37 39 41 41 34 19 21 21 18 15 15 17 13 14 15 14
3 3 6 2 5 7 6 9 13 17 20 24 27 28 29 27 29 32 31 31 32 34 40 43 49 43 37 35 36 38 31 21 11 9 8 10 12 12 12 10 10 10 9
Wind_Direction
138 136 145 166 169 169 195 170 154 160 147 110 90 66 42 26 1 340 320 327 325 322 317 296 282 278 247 222 222 227 236 271 270 264 263 271 273 265 266 277 285 288 287
123 126 127 132 134 133 131 131 133 129 122 113 97 81 57 39 23 15 13 5 358 336 341 347 326 283 263 257 250 249 263 268 255 261 265 264 267 274 281 279 281 282 283
127 128 128 128 130 131 135 136 136 139 140 124 94 67 43 22 10 4 3 3 7 1 1 346 346 337 325 256 240 246 248 247 253 263 265 277 278 277 274 279 284 286 291
134 139 140 142 142 140 141 142 144 155 231 304 312 310 318 326 338 344 346 345 341 341 338 328 322 322 324 321 318 309 291 269 259 260 273 282 282 277 282 285 285 285 290
148 151 152 154 158 162 163 175 207 235 260 282 292 298 303 313 316 318 319 310 308 308 304 312 312 311 307 307 313 313 318 317 313 305 299 292 284 284 286 283 287 290 288
150 149 150 157 155 157 169 199 237 261 282 287 291 299 308 313 322 332 341 350 9 9 1 352 343 334 326 322 320 319 318 317 315 314 309 299 298 299 293 291 288 290 290
148 152 152 152 149 135 140 151 288 298 297 295 297 305 313 326 339 354 10 13 14 8 358 350 351 336 332 329 324 320 315 311 305 304 301 297 296 296 292 291 287 280 278
143 143 152 159 119 79 38 3 321 306 304 301 302 305 341 13 23 28 12 355 349 350 354 351 342 336 332 326 322 317 312 309 307 303 296 294 291 289 285 284 285 283 282
146 150 147 121 13 1 339 331 319 309 308 293 94 66 50 31 11 353 341 340 342 340 338 333 329 327 326 325 324 324 322 319 315 312 304 293 290 290 285 281 281 279 278
166 176 179 353 328 326 329 330 351 40 96 91 25 19 2 350 341 342 336 325 319 317 317 316 316 318 320 322 321 320 315 312 310 312 309 301 292 286 288 279 276 273 273
183 193 194 274 274 321 344 28 65 81 105 41 28 5 336 320 310 312 311 310 304 304 309 313 315 319 320 320 319 318 313 308 304 304 305 304 298 288 282 275 272 267 263
190 199 226 227 294 325 38 63 57 31 1 334 318 306 304 309 310 310 308 306 306 308 314 314 319 320 320 322 318 320 320 313 302 294 300 301 300 297 284 274 271 274 266
190 197 214 256 252 140 125 63 40 351 335 328 317 312 312 310 310 311 310 309 310 316 316 316 320 318 319 322 316 319 323 312 298 287 291 295 294 293 292 287 273 274 277
190 204 228 224 161 149 114 68 27 358 333 324 321 321 320 316 314 313 312 312 318 319 316 316 320 320 320 322 322 320 317 312 300 297 296 298 301 298 284 283 277 273 271
197 203 202 168 126 109 74 30 32 8 350 341 327 324 323 324 325 322 326 330 332 316 317 316 318 318 315 315 313 311 306 304 317 311 305 299 300 301 293 284 278 272 265
189 182 164 139 120 88 63 66 11 9 344 331 328 330 339 341 339 338 337 330 329 314 309 307 312 313 308 308 310 313 309 301 298 305 311 303 299 300 298 293 285 277 269
161 164 148 126 90 67 86 352 348 341 339 331 331 337 339 343 331 327 324 308 308 305 306 305 308 308 301 300 304 308 307 302 294 290 292 304 303 299 294 290 293 290 280
150 140 132 103 58 34 341 325 350 339 323 322 334 341 334 322 310 313 314 310 310 305 306 299 300 304 299 296 297 301 302 299 292 288 284 287 287 284 293 291 288 288 273
140 131 125 134 332 294 302 280 342 334 317 318 327 331 327 322 320 318 319 318 315 312 309 302 301 302 299 297 296 297 296 293 287 284 283 278 277 280 285 287 295 288 267
135 116 98 70 16 7 69 352 321 314 320 316 320 326 327 323 321 318 316 312 311 310 310 307 305 304 301 300 298 297 293 289 286 282 279 275 272 277 287 292 304 293 251
133 119 77 64 105 87 356 327 310 320 320 318 318 320 327 320 321 316 317 314 313 311 309 309 308 307 306 303 300 295 291 286 280 277 274 278 276 279 282 287 296 265 253
137 97 44 95 90 9 342 325 319 325 325 322 324 324 332 327 320 318 318 316 315 314 313 312 313 312 313 314 312 307 299 293 288 282 276 275 274 278 271 274 281 255 251
137 83 63 93 28 347 357 354 350 341 336 331 334 335 335 332 330 326 323 321 320 320 320 326 327 325 325 325 315 308 301 294 289 282 275 272 271 268 276 273 265 257 253
176 109 76 78 354 347 5 359 358 6 5 355 340 334 335 337 337 331 329 326 325 327 338 337 333 334 334 330 327 319 305 296 277 266 267 264 262 263 261 268 247 248 250
201 269 155 168 343 34 48 36 19 2 352 342 334 331 330 332 336 334 334 336 339 343 344 342 342 341 339 339 339 338 334 327 312 229 240 246 249 254 257 252 245 234 237
247 227 170 160 93 75 43 6 350 345 341 339 337 337 338 335 337 340 343 345 346 347 348 346 347 349 348 349 351 351 356 19 65 148 199 227 227 232 231 245 210 214 244